Hourly Weather Koziny

Today, 27 October, Tuesday

Time Temperature Precipitation Wind Pressure Humidity
00:00 +12°C° 0 mm 4 mps 744 mmHg 85%
01:00 +12°C° 0 mm 4 mps 744 mmHg 87%
02:00 +11°C° 0 mm 4 mps 744 mmHg 89%
03:00 +11°C° 0 mm 3 mps 745 mmHg 90%
04:00 +10°C° 0 mm 3 mps 745 mmHg 92%
05:00 +10°C° 0 mm 3 mps 745 mmHg 91%
06:00 +10°C° 0 mm 3 mps 746 mmHg 90%
07:00 +10°C° 0 mm 2 mps 746 mmHg 87%
08:00 +11°C° 0.1 mm 3 mps 746 mmHg 87%
09:00 +11°C° 0.1 mm 3 mps 747 mmHg 86%
10:00 +11°C° 0.1 mm 3 mps 747 mmHg 86%
11:00 +11°C° 0.2 mm 3 mps 747 mmHg 87%
12:00 +11°C° 0.2 mm 3 mps 747 mmHg 88%
13:00 +11°C° 0 mm 4 mps 748 mmHg 92%
14:00 +11°C° 0 mm 4 mps 748 mmHg 88%
15:00 +11°C° 0 mm 4 mps 748 mmHg 85%
16:00 +11°C° 0 mm 4 mps 748 mmHg 81%
17:00 +10°C° 0 mm 4 mps 748 mmHg 81%
18:00 +10°C° 0 mm 3 mps 748 mmHg 80%
19:00 +10°C° 0 mm 3 mps 749 mmHg 79%
20:00 +10°C° 0.1 mm 4 mps 749 mmHg 80%
21:00 +10°C° 0.1 mm 4 mps 749 mmHg 81%
22:00 +8°C° 0.1 mm 4 mps 749 mmHg 82%
23:00 +8°C° 0 mm 4 mps 749 mmHg 84%

Tomorrow, 28 October, Wednesday

Time Temperature Precipitation Wind Pressure Humidity
00:00 +8°C° 0 mm 3 mps 749 mmHg 86%
01:00 +8°C° 0 mm 3 mps 750 mmHg 88%
02:00 +8°C° 0 mm 3 mps 750 mmHg 89%
03:00 +7°C° 0 mm 3 mps 749 mmHg 90%
04:00 +7°C° 0 mm 3 mps 749 mmHg 91%
05:00 +7°C° 0 mm 3 mps 749 mmHg 90%
06:00 +6°C° 0 mm 4 mps 749 mmHg 90%
07:00 +6°C° 0 mm 4 mps 750 mmHg 89%
08:00 +7°C° 0 mm 4 mps 750 mmHg 81%
09:00 +9°C° 0 mm 5 mps 750 mmHg 74%
10:00 +10°C° 0 mm 5 mps 750 mmHg 66%
11:00 +12°C° 0 mm 5 mps 750 mmHg 63%
12:00 +11°C° 0 mm 6 mps 749 mmHg 59%
13:00 +13°C° 0 mm 6 mps 749 mmHg 56%
14:00 +13°C° 0 mm 5 mps 749 mmHg 60%
15:00 +12°C° 0 mm 4 mps 749 mmHg 63%
16:00 +11°C° 0 mm 4 mps 749 mmHg 67%
17:00 +11°C° 0 mm 4 mps 749 mmHg 67%
18:00 +11°C° 0 mm 4 mps 749 mmHg 68%
19:00 +10°C° 0 mm 4 mps 749 mmHg 68%
20:00 +10°C° 0 mm 4 mps 749 mmHg 72%
21:00 +8°C° 0 mm 4 mps 749 mmHg 75%
22:00 +8°C° 0 mm 4 mps 749 mmHg 78%
23:00 +8°C° 0 mm 4 mps 749 mmHg 81%

Day after tomorrow, 29 October, Thursday

Time Temperature Precipitation Wind Pressure Humidity
00:00 +8°C° 0 mm 4 mps 749 mmHg 83%
01:00 +7°C° 0 mm 4 mps 749 mmHg 86%
02:00 +7°C° 0 mm 4 mps 749 mmHg 87%
03:00 +7°C° 0 mm 4 mps 749 mmHg 89%
04:00 +7°C° 0 mm 4 mps 749 mmHg 90%
05:00 +7°C° 0 mm 4 mps 749 mmHg 91%
06:00 +6°C° 0 mm 4 mps 749 mmHg 92%
07:00 +6°C° 0 mm 4 mps 749 mmHg 93%
08:00 +7°C° 0 mm 4 mps 749 mmHg 86%
09:00 +8°C° 0 mm 5 mps 749 mmHg 79%
10:00 +10°C° 0 mm 5 mps 749 mmHg 72%
11:00 +10°C° 0 mm 5 mps 749 mmHg 73%
12:00 +10°C° 0 mm 5 mps 749 mmHg 74%
13:00 +10°C° 0 mm 4 mps 749 mmHg 75%
14:00 +10°C° 0.1 mm 4 mps 749 mmHg 78%
15:00 +10°C° 0.1 mm 4 mps 749 mmHg 81%
16:00 +10°C° 0.1 mm 3 mps 749 mmHg 84%
17:00 +9°C° 0.4 mm 3 mps 749 mmHg 84%
18:00 +9°C° 0.4 mm 3 mps 749 mmHg 84%
19:00 +8°C° 0.4 mm 4 mps 749 mmHg 84%
20:00 +7°C° 0 mm 4 mps 750 mmHg 85%
21:00 +6°C° 0 mm 4 mps 750 mmHg 87%
22:00 +7°C° 0 mm 3 mps 750 mmHg 88%
23:00 +6°C° 0 mm 4 mps 751 mmHg 88%

30 October, Friday

Time Temperature Precipitation Wind Pressure Humidity
00:00 +6°C° 0 mm 4 mps 751 mmHg 88%
01:00 +6°C° 0 mm 4 mps 751 mmHg 88%
02:00 +5°C° 0 mm 4 mps 751 mmHg 90%
03:00 +5°C° 0 mm 4 mps 752 mmHg 92%
04:00 +4°C° 0 mm 4 mps 752 mmHg 95%
05:00 +4°C° 0 mm 4 mps 752 mmHg 95%
06:00 +4°C° 0 mm 4 mps 752 mmHg 96%
07:00 +4°C° 0 mm 3 mps 752 mmHg 96%
08:00 +5°C° 0 mm 3 mps 753 mmHg 94%
09:00 +5°C° 0 mm 3 mps 753 mmHg 91%
10:00 +7°C° 0 mm 3 mps 753 mmHg 88%
11:00 +8°C° 0 mm 3 mps 753 mmHg 84%
12:00 +8°C° 0 mm 3 mps 752 mmHg 80%
13:00 +9°C° 0 mm 3 mps 752 mmHg 76%
14:00 +8°C° 0 mm 3 mps 752 mmHg 78%
15:00 +8°C° 0 mm 2 mps 752 mmHg 79%
16:00 +7°C° 0 mm 2 mps 752 mmHg 81%
17:00 +8°C° 0 mm 1 mps 752 mmHg 83%
18:00 +8°C° 0 mm 1 mps 752 mmHg 85%
19:00 +7°C° 0 mm 1 mps 752 mmHg 86%
20:00 +7°C° 0 mm 1 mps 753 mmHg 88%
21:00 +6°C° 0 mm 1 mps 753 mmHg 89%
22:00 +6°C° 0 mm 1 mps 754 mmHg 90%
23:00 +5°C° 0 mm 1 mps 754 mmHg 90%

31 October, Saturday

Time Temperature Precipitation Wind Pressure Humidity
00:00 +5°C° 0 mm 1 mps 755 mmHg 89%
01:00 +5°C° 0 mm 1 mps 755 mmHg 89%
02:00 +5°C° 0 mm 1 mps 756 mmHg 89%
03:00 +5°C° 0 mm 1 mps 756 mmHg 88%
04:00 +5°C° 0 mm 1 mps 757 mmHg 88%
05:00 +4°C° 0 mm 0 mps 757 mmHg 88%
06:00 +3°C° 0 mm 0 mps 757 mmHg 87%
07:00 +3°C° 0 mm 0 mps 758 mmHg 87%
08:00 +6°C° 0 mm 1 mps 758 mmHg 82%
09:00 +8°C° 0 mm 1 mps 759 mmHg 77%
10:00 +9°C° 0 mm 1 mps 759 mmHg 71%
11:00 +10°C° 0 mm 1 mps 759 mmHg 69%
12:00 +11°C° 0 mm 1 mps 759 mmHg 68%
13:00 +12°C° 0 mm 2 mps 759 mmHg 66%
14:00 +10°C° 0 mm 2 mps 759 mmHg 70%
15:00 +9°C° 0 mm 2 mps 759 mmHg 75%
16:00 +8°C° 0 mm 2 mps 759 mmHg 79%
17:00 +7°C° 0 mm 2 mps 760 mmHg 81%
18:00 +7°C° 0 mm 2 mps 760 mmHg 83%
19:00 +6°C° 0 mm 2 mps 760 mmHg 85%
20:00 +5°C° 0 mm 3 mps 760 mmHg 86%
21:00 +5°C° 0 mm 3 mps 760 mmHg 88%
22:00 +4°C° 0 mm 3 mps 760 mmHg 89%
23:00 +4°C° 0 mm 3 mps 760 mmHg 89%

1 November, Sunday

Time Temperature Precipitation Wind Pressure Humidity
00:00 +4°C° 0 mm 3 mps 760 mmHg 89%
01:00 +4°C° 0 mm 4 mps 760 mmHg 89%
02:00 +4°C° 0 mm 4 mps 760 mmHg 89%
03:00 +4°C° 0 mm 4 mps 759 mmHg 89%
04:00 +4°C° 0 mm 4 mps 759 mmHg 90%
05:00 +4°C° 0 mm 4 mps 759 mmHg 89%
06:00 +4°C° 0 mm 4 mps 759 mmHg 89%
07:00 +4°C° 0 mm 4 mps 759 mmHg 88%
08:00 +5°C° 0 mm 5 mps 759 mmHg 82%
09:00 +7°C° 0 mm 5 mps 758 mmHg 77%
10:00 +8°C° 0 mm 6 mps 758 mmHg 71%
11:00 +9°C° 0 mm 6 mps 758 mmHg 68%
12:00 +10°C° 0 mm 6 mps 757 mmHg 64%
13:00 +11°C° 0 mm 7 mps 757 mmHg 60%
14:00 +10°C° 0 mm 6 mps 757 mmHg 63%
15:00 +9°C° 0 mm 6 mps 756 mmHg 66%
16:00 +9°C° 0 mm 6 mps 756 mmHg 69%
17:00 +8°C° 0 mm 6 mps 756 mmHg 71%
18:00 +8°C° 0 mm 6 mps 756 mmHg 72%
19:00 +8°C° 0 mm 7 mps 756 mmHg 74%
20:00 +8°C° 0 mm 7 mps 756 mmHg 74%
21:00 +8°C° 0 mm 7 mps 755 mmHg 75%
22:00 +8°C° 0 mm 6 mps 755 mmHg 75%
23:00 +7°C° 0 mm 6 mps 755 mmHg 77%
Show more